Time,TemperatureF,DewpointF,PressureIn,WindDirection,WindDirectionDegrees,WindSpeedMPH,WindSpeedGustMPH,Humidity,HourlyPrecipIn,Conditions,Clouds,dailyrainin,SolarRadiationWatts/m^2,SoftwareType,DateUTC
2013-05-18 00:02:00,75.0,71.0,-100.00,SSE,153,5.0,11.0,86,0.00,,,0.00,0.000000,,2013-05-18 05:02:00,
2013-05-18 00:22:00,73.0,69.0,-100.00,SSE,167,5.0,10.0,88,0.00,,,0.00,0.000000,,2013-05-18 05:22:00,
2013-05-18 00:32:00,73.0,69.0,-100.00,SSE,167,5.0,10.0,88,0.00,,,0.00,0.000000,,2013-05-18 05:32:00,
2013-05-18 00:42:00,73.0,69.0,-100.00,SSE,167,5.0,10.0,88,0.00,,,0.00,0.000000,,2013-05-18 05:42:00,
2013-05-18 00:52:00,73.0,69.0,-100.00,SSE,167,5.0,10.0,88,0.00,,,0.00,0.000000,,2013-05-18 05:52:00,
2013-05-18 01:02:00,73.0,69.0,-100.00,SSE,167,5.0,10.0,88,0.00,,,0.00,0.000000,,2013-05-18 06:02:00,
2013-05-18 01:32:00,72.0,69.0,-100.00,South,176,4.0,10.0,91,0.00,,,0.00,0.000000,,2013-05-18 06:32:00,
2013-05-18 01:42:00,72.0,69.0,-100.00,South,176,4.0,10.0,91,0.00,,,0.00,0.000000,,2013-05-18 06:42:00,
2013-05-18 01:52:00,72.0,69.0,-100.00,South,176,4.0,10.0,91,0.00,,,0.00,0.000000,,2013-05-18 06:52:00,
2013-05-18 02:01:00,72.0,69.0,-100.00,South,176,4.0,10.0,91,0.00,,,0.00,0.000000,,2013-05-18 07:01:00,
2013-05-18 02:32:00,72.0,69.0,-100.00,SSE,163,5.0,10.0,90,0.00,,,0.00,0.000000,,2013-05-18 07:32:00,
2013-05-18 02:43:00,72.0,69.0,-100.00,SSE,163,5.0,10.0,90,0.00,,,0.00,0.000000,,2013-05-18 07:43:00,
2013-05-18 02:52:00,72.0,69.0,-100.00,SSE,163,5.0,10.0,90,0.00,,,0.00,0.000000,,2013-05-18 07:52:00,
2013-05-18 03:01:00,72.0,69.0,-100.00,SSE,163,5.0,10.0,90,0.00,,,0.00,0.000000,,2013-05-18 08:01:00,
2013-05-18 03:33:00,72.0,69.0,-100.00,SSE,165,5.0,9.0,91,0.00,,,0.00,0.000000,,2013-05-18 08:33:00,
2013-05-18 03:42:00,72.0,69.0,-100.00,SSE,165,5.0,9.0,91,0.00,,,0.00,0.000000,,2013-05-18 08:42:00,
2013-05-18 03:52:00,72.0,69.0,-100.00,SSE,165,5.0,9.0,91,0.00,,,0.00,0.000000,,2013-05-18 08:52:00,
2013-05-18 04:02:00,72.0,69.0,-100.00,SSE,165,5.0,9.0,91,0.00,,,0.00,0.000000,,2013-05-18 09:02:00,
2013-05-18 04:03:00,72.0,69.0,-100.00,South,175,4.0,8.0,91,0.00,,,0.00,0.000000,,2013-05-18 09:03:00,
2013-05-18 04:33:00,72.0,69.0,-100.00,South,175,4.0,8.0,91,0.00,,,0.00,0.000000,,2013-05-18 09:33:00,
2013-05-18 04:43:00,72.0,69.0,-100.00,South,175,4.0,8.0,91,0.00,,,0.00,0.000000,,2013-05-18 09:43:00,
2013-05-18 04:53:00,72.0,69.0,-100.00,South,175,4.0,8.0,91,0.00,,,0.00,0.000000,,2013-05-18 09:53:00,
2013-05-18 05:03:00,71.0,68.0,-100.00,South,188,3.0,9.0,91,0.00,,,0.00,0.000000,,2013-05-18 10:03:00,
2013-05-18 05:23:00,71.0,68.0,-100.00,South,188,3.0,9.0,91,0.00,,,0.00,0.000000,,2013-05-18 10:23:00,
2013-05-18 05:33:00,71.0,68.0,-100.00,South,188,3.0,9.0,91,0.00,,,0.00,0.000000,,2013-05-18 10:33:00,
2013-05-18 05:42:00,71.0,68.0,-100.00,South,188,3.0,9.0,91,0.00,,,0.00,0.000000,,2013-05-18 10:42:00,
2013-05-18 05:53:00,71.0,68.0,-100.00,South,188,3.0,9.0,91,0.00,,,0.00,0.000000,,2013-05-18 10:53:00,
2013-05-18 06:33:00,71.0,69.0,-100.00,SSE,158,0.0,5.0,93,0.00,,,0.00,0.000000,,2013-05-18 11:33:00,
2013-05-18 06:42:00,71.0,69.0,-100.00,SSE,158,0.0,5.0,93,0.00,,,0.00,0.000000,,2013-05-18 11:42:00,
2013-05-18 06:52:00,71.0,69.0,-100.00,SSE,158,0.0,5.0,93,0.00,,,0.00,0.000000,,2013-05-18 11:52:00,
2013-05-18 07:01:00,71.0,69.0,-100.00,SSE,158,0.0,5.0,93,0.00,,,0.00,0.000000,,2013-05-18 12:01:00,
2013-05-18 07:33:00,71.0,69.0,-100.00,SSE,148,1.0,4.0,94,0.00,,,0.00,32.000000,,2013-05-18 12:33:00,
2013-05-18 07:42:00,71.0,69.0,-100.00,SSE,148,1.0,4.0,94,0.00,,,0.00,32.000000,,2013-05-18 12:42:00,
2013-05-18 07:52:00,71.0,69.0,-100.00,SSE,148,1.0,4.0,94,0.00,,,0.00,32.000000,,2013-05-18 12:52:00,
2013-05-18 08:01:00,71.0,69.0,-100.00,SSE,148,1.0,4.0,94,0.00,,,0.00,32.000000,,2013-05-18 13:01:00,
2013-05-18 08:03:00,73.0,70.0,-100.00,South,175,4.0,7.0,91,0.00,,,0.00,72.000000,,2013-05-18 13:03:00,
2013-05-18 08:33:00,73.0,70.0,-100.00,South,175,4.0,7.0,91,0.00,,,0.00,72.000000,,2013-05-18 13:33:00,
2013-05-18 08:43:00,73.0,70.0,-100.00,South,175,4.0,7.0,91,0.00,,,0.00,72.000000,,2013-05-18 13:43:00,
2013-05-18 08:53:00,73.0,70.0,-100.00,South,175,4.0,7.0,91,0.00,,,0.00,72.000000,,2013-05-18 13:53:00,
2013-05-18 09:03:00,76.0,70.0,-100.00,South,174,6.0,12.0,82,0.00,,,0.00,241.000000,,2013-05-18 14:03:00,
2013-05-18 09:33:00,76.0,70.0,-100.00,South,174,6.0,12.0,82,0.00,,,0.00,241.000000,,2013-05-18 14:33:00,
2013-05-18 09:42:00,76.0,70.0,-100.00,South,174,6.0,12.0,82,0.00,,,0.00,241.000000,,2013-05-18 14:42:00,
2013-05-18 09:54:00,76.0,70.0,-100.00,South,174,6.0,12.0,82,0.00,,,0.00,241.000000,,2013-05-18 14:54:00,
2013-05-18 10:33:00,80.0,71.0,-100.00,South,189,5.0,15.0,75,0.00,,,0.00,486.000000,,2013-05-18 15:33:00,
2013-05-18 10:43:00,80.0,71.0,-100.00,South,189,5.0,15.0,75,0.00,,,0.00,486.000000,,2013-05-18 15:43:00,
2013-05-18 10:53:00,80.0,71.0,-100.00,South,189,5.0,15.0,75,0.00,,,0.00,486.000000,,2013-05-18 15:53:00,
2013-05-18 11:02:00,80.0,71.0,-100.00,South,189,5.0,15.0,75,0.00,,,0.00,486.000000,,2013-05-18 16:02:00,
2013-05-18 11:33:00,85.0,73.0,-100.00,South,185,4.0,11.0,67,0.00,,,0.00,793.000000,,2013-05-18 16:33:00,
2013-05-18 11:42:00,85.0,73.0,-100.00,South,185,4.0,11.0,67,0.00,,,0.00,793.000000,,2013-05-18 16:42:00,
2013-05-18 11:52:00,85.0,73.0,-100.00,South,185,4.0,11.0,67,0.00,,,0.00,793.000000,,2013-05-18 16:52:00,
2013-05-18 12:02:00,85.0,73.0,-100.00,South,185,4.0,11.0,67,0.00,,,0.00,793.000000,,2013-05-18 17:02:00,
2013-05-18 12:33:00,87.0,72.0,-100.00,SSE,161,5.0,11.0,62,0.00,,,-99.99,925.000000,,2013-05-18 17:33:00,
2013-05-18 12:42:00,87.0,72.0,-100.00,SSE,161,5.0,11.0,62,0.00,,,-99.99,925.000000,,2013-05-18 17:42:00,
2013-05-18 12:52:00,87.0,72.0,-100.00,SSE,161,5.0,11.0,62,0.00,,,-99.99,925.000000,,2013-05-18 17:52:00,
2013-05-18 13:01:00,87.0,72.0,-100.00,SSE,161,5.0,11.0,62,0.00,,,-99.99,925.000000,,2013-05-18 18:01:00,
2013-05-18 13:32:00,88.0,71.0,-100.00,SSE,149,7.0,14.0,57,0.00,,,0.00,1009.000000,,2013-05-18 18:32:00,
2013-05-18 13:42:00,88.0,71.0,-100.00,SSE,149,7.0,14.0,57,0.00,,,0.00,1009.000000,,2013-05-18 18:42:00,
2013-05-18 13:52:00,88.0,71.0,-100.00,SSE,149,7.0,14.0,57,0.00,,,0.00,1009.000000,,2013-05-18 18:52:00,
2013-05-18 14:02:00,88.0,71.0,-100.00,SSE,149,7.0,14.0,57,0.00,,,0.00,1009.000000,,2013-05-18 19:02:00,
2013-05-18 14:32:00,90.0,70.0,-100.00,South,190,6.0,14.0,52,0.00,,,0.00,1020.000000,,2013-05-18 19:32:00,
2013-05-18 14:42:00,90.0,70.0,-100.00,South,190,6.0,14.0,52,0.00,,,0.00,1020.000000,,2013-05-18 19:42:00,
2013-05-18 14:52:00,90.0,70.0,-100.00,South,190,6.0,14.0,52,0.00,,,0.00,1020.000000,,2013-05-18 19:52:00,
2013-05-18 15:02:00,90.0,70.0,-100.00,South,190,6.0,14.0,52,0.00,,,0.00,1020.000000,,2013-05-18 20:02:00,
2013-05-18 15:32:00,91.0,70.0,-100.00,SSE,160,6.0,14.0,51,0.00,,,0.00,959.000000,,2013-05-18 20:32:00,
2013-05-18 15:42:00,91.0,70.0,-100.00,SSE,160,6.0,14.0,51,0.00,,,0.00,959.000000,,2013-05-18 20:42:00,
2013-05-18 15:52:00,91.0,70.0,-100.00,SSE,160,6.0,14.0,51,0.00,,,0.00,959.000000,,2013-05-18 20:52:00,
2013-05-18 16:01:00,91.0,70.0,-100.00,SSE,160,6.0,14.0,51,0.00,,,0.00,959.000000,,2013-05-18 21:01:00,
2013-05-18 16:03:00,92.0,69.0,-100.00,SSW,194,5.0,14.0,48,0.00,,,0.00,667.000000,,2013-05-18 21:03:00,
2013-05-18 16:22:00,92.0,69.0,-100.00,SSW,194,5.0,14.0,48,0.00,,,0.00,667.000000,,2013-05-18 21:22:00,
2013-05-18 16:33:00,92.0,69.0,-100.00,SSW,194,5.0,14.0,48,0.00,,,0.00,667.000000,,2013-05-18 21:33:00,
2013-05-18 16:43:00,92.0,69.0,-100.00,SSW,194,5.0,14.0,48,0.00,,,0.00,667.000000,,2013-05-18 21:43:00,
2013-05-18 16:53:00,92.0,69.0,-100.00,SSW,194,5.0,14.0,48,0.00,,,0.00,667.000000,,2013-05-18 21:53:00,
2013-05-18 17:23:00,91.0,69.0,-100.00,South,171,6.0,15.0,49,0.00,,,0.00,588.000000,,2013-05-18 22:23:00,
2013-05-18 17:33:00,91.0,69.0,-100.00,South,171,6.0,15.0,49,0.00,,,0.00,588.000000,,2013-05-18 22:33:00,
2013-05-18 17:42:00,91.0,69.0,-100.00,South,171,6.0,15.0,49,0.00,,,0.00,588.000000,,2013-05-18 22:42:00,
2013-05-18 17:53:00,91.0,69.0,-100.00,South,171,6.0,15.0,49,0.00,,,0.00,588.000000,,2013-05-18 22:53:00,
2013-05-18 18:01:00,91.0,69.0,-100.00,South,171,6.0,15.0,49,0.00,,,0.00,588.000000,,2013-05-18 23:01:00,
2013-05-18 18:32:00,89.0,67.0,-100.00,South,174,6.0,18.0,48,0.00,,,0.00,490.000000,,2013-05-18 23:32:00,
2013-05-18 18:42:00,89.0,67.0,-100.00,South,174,6.0,18.0,48,0.00,,,0.00,490.000000,,2013-05-18 23:42:00,
2013-05-18 18:53:00,89.0,67.0,-100.00,South,174,6.0,18.0,48,0.00,,,0.00,490.000000,,2013-05-18 23:53:00,
2013-05-18 19:01:00,89.0,67.0,-100.00,South,174,6.0,18.0,48,0.00,,,0.00,490.000000,,2013-05-19 00:01:00,
2013-05-18 19:32:00,87.0,64.0,-100.00,South,171,5.0,18.0,46,0.00,,,0.00,255.000000,,2013-05-19 00:32:00,
2013-05-18 19:42:00,87.0,64.0,-100.00,South,171,5.0,18.0,46,0.00,,,0.00,255.000000,,2013-05-19 00:42:00,
2013-05-18 19:52:00,87.0,64.0,-100.00,South,171,5.0,18.0,46,0.00,,,0.00,255.000000,,2013-05-19 00:52:00,
2013-05-18 20:01:00,87.0,64.0,-100.00,South,171,5.0,18.0,46,0.00,,,0.00,255.000000,,2013-05-19 01:01:00,
2013-05-18 20:22:00,83.0,67.0,-100.00,SSE,153,6.0,11.0,58,0.00,,,0.00,63.000000,,2013-05-19 01:22:00,
2013-05-18 20:32:00,83.0,67.0,-100.00,SSE,153,6.0,11.0,58,0.00,,,0.00,63.000000,,2013-05-19 01:32:00,
2013-05-18 20:42:00,83.0,67.0,-100.00,SSE,153,6.0,11.0,58,0.00,,,0.00,63.000000,,2013-05-19 01:42:00,
2013-05-18 20:52:00,83.0,67.0,-100.00,SSE,153,6.0,11.0,58,0.00,,,0.00,63.000000,,2013-05-19 01:52:00,
2013-05-18 21:01:00,83.0,67.0,-100.00,SSE,153,6.0,11.0,58,0.00,,,0.00,63.000000,,2013-05-19 02:01:00,
2013-05-18 21:22:00,80.0,68.0,-100.00,SSE,157,6.0,12.0,67,0.00,,,0.00,1.000000,,2013-05-19 02:22:00,
2013-05-18 21:32:00,80.0,68.0,-100.00,SSE,157,6.0,12.0,67,0.00,,,0.00,1.000000,,2013-05-19 02:32:00,
2013-05-18 21:42:00,80.0,68.0,-100.00,SSE,157,6.0,12.0,67,0.00,,,0.00,1.000000,,2013-05-19 02:42:00,
2013-05-18 21:52:00,80.0,68.0,-100.00,SSE,157,6.0,12.0,67,0.00,,,0.00,1.000000,,2013-05-19 02:52:00,
2013-05-18 22:01:00,80.0,68.0,-100.00,SSE,157,6.0,12.0,67,0.00,,,0.00,1.000000,,2013-05-19 03:01:00,
2013-05-18 22:33:00,78.0,69.0,-100.00,SSE,157,6.0,14.0,75,0.00,,,0.00,0.000000,,2013-05-19 03:33:00,
2013-05-18 22:43:00,78.0,69.0,-100.00,SSE,157,6.0,14.0,75,0.00,,,0.00,0.000000,,2013-05-19 03:43:00,
2013-05-18 22:53:00,78.0,69.0,-100.00,SSE,157,6.0,14.0,75,0.00,,,0.00,0.000000,,2013-05-19 03:53:00,
2013-05-18 23:02:00,78.0,69.0,-100.00,SSE,157,6.0,14.0,75,0.00,,,0.00,0.000000,,2013-05-19 04:02:00,
2013-05-18 23:33:00,76.0,68.0,-100.00,SSE,162,6.0,14.0,76,0.00,,,0.00,0.000000,,2013-05-19 04:33:00,
2013-05-18 23:42:00,76.0,68.0,-100.00,SSE,162,6.0,14.0,76,0.00,,,0.00,0.000000,,2013-05-19 04:42:00,
2013-05-18 23:53:00,76.0,68.0,-100.00,SSE,162,6.0,14.0,76,0.00,,,0.00,0.000000,,2013-05-19 04:53:00,